TimeCDT,TemperatureF,Dew PointF,Humidity,Sea Level PressureIn,VisibilityMPH,Wind Direction,Wind SpeedMPH,Gust SpeedMPH,PrecipitationIn,Events,Conditions,WindDirDegrees,DateUTC
12:15 AM,68.0,62.6,83,29.74,10.0,South,10.4,16.1,N/A,Rain,Light Rain,170,2014-04-14 05:15:00
12:35 AM,68.0,60.8,78,29.72,10.0,South,13.8,19.6,N/A,Thunderstorm,Thunderstorm,170,2014-04-14 05:35:00
12:55 AM,68.0,60.8,78,29.72,10.0,South,16.1,20.7,N/A,Thunderstorm,Overcast,170,2014-04-14 05:55:00
1:15 AM,68.0,60.8,78,29.71,10.0,South,20.7,26.5,N/A,Thunderstorm,Thunderstorm,170,2014-04-14 06:15:00
1:35 AM,59.0,57.2,94,29.81,2.0,West,21.9,57.5,0.18,Rain-Thunderstorm,Heavy Thunderstorms and Rain,260,2014-04-14 06:35:00
1:55 AM,59.0,57.2,94,29.81,7.0,West,15.0,23.0,0.24,Rain,Light Rain,280,2014-04-14 06:55:00
2:15 AM,59.0,57.2,94,29.80,10.0,West,10.4,-,N/A,Rain,Light Rain,270,2014-04-14 07:15:00
2:35 AM,59.0,57.2,94,29.78,10.0,Calm,Calm,-,N/A,Rain,Light Rain,0,2014-04-14 07:35:00
2:55 AM,59.0,57.2,94,29.79,10.0,South,3.5,-,0.01,Rain,Light Rain,190,2014-04-14 07:55:00
3:15 AM,59.0,55.4,88,29.77,10.0,SSE,3.5,-,0.01,Rain,Light Rain,150,2014-04-14 08:15:00
3:35 AM,59.0,57.2,94,29.77,10.0,South,6.9,-,0.02,Rain,Light Rain,170,2014-04-14 08:35:00
3:55 AM,59.0,57.2,94,29.77,10.0,SSE,10.4,-,0.02,Rain,Light Rain,160,2014-04-14 08:55:00
4:15 AM,59.0,55.4,88,29.74,10.0,South,16.1,-,N/A,Rain,Light Rain,170,2014-04-14 09:15:00
4:35 AM,59.0,55.4,88,29.72,10.0,SSE,15.0,-,N/A,Rain,Light Rain,160,2014-04-14 09:35:00
4:55 AM,57.2,55.4,94,29.71,10.0,SE,11.5,-,N/A,,Mostly Cloudy,140,2014-04-14 09:55:00
5:15 AM,57.2,55.4,94,29.75,10.0,South,8.1,-,N/A,,Mostly Cloudy,190,2014-04-14 10:15:00
5:35 AM,57.2,55.4,94,29.76,10.0,South,9.2,-,N/A,,Light Drizzle,180,2014-04-14 10:35:00
5:55 AM,57.2,55.4,94,29.73,10.0,SSE,12.7,-,N/A,Rain,Light Rain,150,2014-04-14 10:55:00
6:15 AM,57.2,55.4,94,29.77,10.0,SSE,10.4,-,N/A,,Scattered Clouds,160,2014-04-14 11:15:00
6:35 AM,57.2,55.4,94,29.76,10.0,SSE,8.1,-,N/A,,Clear,150,2014-04-14 11:35:00
6:55 AM,57.2,55.4,94,29.76,10.0,ESE,3.5,-,N/A,,Clear,120,2014-04-14 11:55:00
7:15 AM,57.2,55.4,94,29.78,10.0,Calm,Calm,-,N/A,,Clear,0,2014-04-14 12:15:00
7:35 AM,57.2,55.4,94,29.79,10.0,Calm,Calm,-,N/A,,Clear,0,2014-04-14 12:35:00
7:55 AM,59.0,55.4,88,29.80,10.0,South,3.5,-,N/A,,Clear,170,2014-04-14 12:55:00
8:15 AM,59.0,55.4,88,29.80,10.0,Calm,Calm,-,N/A,,Scattered Clouds,0,2014-04-14 13:15:00
8:35 AM,59.0,57.2,94,29.82,10.0,Calm,Calm,-,N/A,,Scattered Clouds,0,2014-04-14 13:35:00
8:55 AM,59.0,57.2,94,29.82,10.0,SE,3.5,-,N/A,,Mostly Cloudy,140,2014-04-14 13:55:00
9:15 AM,59.0,57.2,94,29.85,10.0,South,3.5,-,N/A,,Overcast,180,2014-04-14 14:15:00
9:35 AM,60.8,57.2,88,29.85,10.0,SSW,5.8,-,N/A,,Overcast,200,2014-04-14 14:35:00
9:55 AM,60.8,57.2,88,29.85,10.0,SSW,6.9,-,N/A,,Overcast,210,2014-04-14 14:55:00
10:15 AM,60.8,57.2,88,29.87,10.0,SW,4.6,-,N/A,,Overcast,230,2014-04-14 15:15:00
10:35 AM,60.8,57.2,88,29.87,10.0,West,5.8,-,N/A,,Overcast,270,2014-04-14 15:35:00
10:55 AM,60.8,57.2,88,29.87,10.0,West,4.6,-,N/A,,Overcast,280,2014-04-14 15:55:00
11:15 AM,60.8,55.4,82,29.87,10.0,WSW,5.8,-,N/A,,Mostly Cloudy,250,2014-04-14 16:15:00
11:35 AM,62.6,57.2,82,29.85,10.0,West,4.6,-,N/A,Thunderstorm,Overcast,280,2014-04-14 16:35:00
11:55 AM,62.6,57.2,82,29.84,10.0,Calm,Calm,-,N/A,,Mostly Cloudy,0,2014-04-14 16:55:00
12:15 PM,62.6,55.4,77,29.85,10.0,West,3.5,-,N/A,,Mostly Cloudy,270,2014-04-14 17:15:00
12:35 PM,59.0,53.6,82,29.84,10.0,North,15.0,-,N/A,,Overcast,350,2014-04-14 17:35:00
12:55 PM,55.4,51.8,88,29.83,10.0,NNW,10.4,-,N/A,Thunderstorm,Overcast,340,2014-04-14 17:55:00
1:15 PM,55.4,51.8,88,29.83,10.0,North,10.4,-,N/A,Rain,Light Rain,350,2014-04-14 18:15:00
1:35 PM,53.6,51.8,94,29.82,10.0,NNW,12.7,-,N/A,Thunderstorm,Overcast,340,2014-04-14 18:35:00
1:55 PM,53.6,51.8,94,29.81,7.0,NNW,10.4,-,N/A,,Overcast,340,2014-04-14 18:55:00
2:15 PM,53.6,51.8,94,29.82,10.0,NW,13.8,-,N/A,Thunderstorm,Unknown,320,2014-04-14 19:15:00
2:35 PM,53.6,50.0,88,29.84,7.0,NW,15.0,-,N/A,Rain-Thunderstorm,Light Thunderstorms and Rain,320,2014-04-14 19:35:00
2:55 PM,51.8,50.0,94,29.85,2.5,NW,16.1,-,0.01,Rain-Thunderstorm,Rain,320,2014-04-14 19:55:00
3:15 PM,50.0,48.2,94,29.86,2.0,NW,20.7,29.9,0.01,Rain-Thunderstorm,Rain,320,2014-04-14 20:15:00
3:35 PM,50.0,48.2,94,29.86,2.5,NW,17.3,-,0.02,Rain-Thunderstorm,Light Thunderstorms and Rain,320,2014-04-14 20:35:00
3:55 PM,50.0,46.4,87,29.85,10.0,NNW,20.7,28.8,0.02,Rain,Light Rain,330,2014-04-14 20:55:00
4:15 PM,50.0,46.4,87,29.84,7.0,NNW,16.1,21.9,0.01,Rain,Heavy Rain,340,2014-04-14 21:15:00
4:35 PM,48.2,46.4,93,29.87,4.0,NW,19.6,-,0.07,Rain,Heavy Rain,320,2014-04-14 21:35:00
4:55 PM,48.2,46.4,93,29.87,7.0,NNW,20.7,24.2,0.10,Rain,Light Rain,330,2014-04-14 21:55:00
5:15 PM,46.4,44.6,93,29.90,10.0,NW,19.6,25.3,0.01,Rain,Light Rain,320,2014-04-14 22:15:00
5:35 PM,46.4,44.6,93,29.91,5.0,NW,11.5,-,0.07,Rain,Rain,320,2014-04-14 22:35:00
5:55 PM,46.4,44.6,93,29.93,4.0,NW,12.7,-,0.11,Rain,Light Rain,320,2014-04-14 22:55:00
6:15 PM,46.4,44.6,93,29.94,10.0,NW,11.5,-,N/A,Rain,Light Rain,320,2014-04-14 23:15:00
6:35 PM,46.4,44.6,93,29.92,7.0,NNW,20.7,26.5,0.01,,Light Drizzle,330,2014-04-14 23:35:00
6:55 PM,46.4,42.8,87,29.91,7.0,NNW,20.7,-,0.01,,Light Drizzle,340,2014-04-14 23:55:00
7:15 PM,46.4,42.8,87,29.91,10.0,North,23.0,27.6,N/A,,Overcast,350,2014-04-15 00:15:00
7:35 PM,46.4,42.8,87,29.94,10.0,NNW,20.7,-,N/A,,Mostly Cloudy,340,2014-04-15 00:35:00
7:55 PM,46.4,42.8,87,29.96,10.0,NNW,11.5,-,N/A,,Overcast,340,2014-04-15 00:55:00
8:15 PM,46.4,42.8,87,29.98,10.0,NNW,18.4,21.9,N/A,,Light Drizzle,340,2014-04-15 01:15:00
8:35 PM,44.6,42.8,93,29.98,4.0,NNW,21.9,27.6,N/A,Rain,Light Rain,330,2014-04-15 01:35:00
8:55 PM,44.6,42.8,93,30.00,3.0,NNW,16.1,26.5,N/A,,Light Drizzle,330,2014-04-15 01:55:00
9:15 PM,42.8,41.0,93,30.00,5.0,North,15.0,25.3,N/A,Rain,Light Rain,350,2014-04-15 02:15:00
9:35 PM,44.6,41.0,87,30.01,10.0,NNW,16.1,-,N/A,,Overcast,330,2014-04-15 02:35:00
9:55 PM,44.6,39.2,81,30.01,10.0,NNW,18.4,24.2,N/A,,Overcast,340,2014-04-15 02:55:00
10:15 PM,44.6,39.2,81,30.02,10.0,NNW,19.6,25.3,N/A,,Overcast,330,2014-04-15 03:15:00
10:35 PM,44.6,37.4,76,30.02,10.0,NNW,18.4,-,N/A,,Overcast,330,2014-04-15 03:35:00
10:55 PM,42.8,37.4,81,30.02,10.0,NNW,21.9,-,N/A,,Overcast,330,2014-04-15 03:55:00
11:15 PM,42.8,37.4,81,30.03,10.0,NNW,21.9,26.5,N/A,,Overcast,330,2014-04-15 04:15:00
11:35 PM,42.8,35.6,76,30.04,10.0,NNW,18.4,26.5,N/A,,Overcast,330,2014-04-15 04:35:00
11:55 PM,42.8,33.8,70,30.05,10.0,NNW,23.0,-,N/A,,Overcast,340,2014-04-15 04:55:00